Location: *
(47.2969°N, 10.2930°E)
Time: 10:43:50
(UTC+00:00)

BREEZE M DEB (TANK) - Pass Details

Date: 09 April 2020
Orbit: 313 x 13666 km, 49.6° (Epoch: 23 May)

Event Time Altitude Azimuth Distance (km) Brightness Sun altitude
Rises 20:41:39 0° 260° (W) 5,233 8.2 -24.5°
Reaches altitude 10° 20:46:32 10° 263° (W) 2,970 6.9 -25.1°
Enters shadow 20:51:30 54° 291° (WNW) 674 3.4 -25.7°
